Regional Weather Roundup
Issued by NWS

Home | Current Version | Previous Version | Graphics & Text | Print | Product List | Glossary On
Versions: 1 2 3 4 5 6 7 8 9 10 11 12 13 14 15 16 17 18 19 20 21 22 23 24 25 26 27 28 29 30 31 32 33 34 35 36 37 38 39 40 41 42 43 44 45 46 47 48 49 50
000
ASUS45 KBOU 290807
RWRCO

WEATHER ROUNDUP FOR COLORADO
NATIONAL WEATHER SERVICE DENVER/BOULDER CO
100 AM MST THU JAN 29 2015

NOTE: "FAIR" INDICATES FEW OR NO CLOUDS BELOW 12000 FEET WITH NO
SIGNIFICANT WEATHER AND/OR OBSTRUCTIONS TO VISIBILITY.

COZ001>005-013-030-031-290900-
...NORTHWEST COLORADO...

CITY           SKY/WX    TMP DP  RH WIND       PRES   REMARKS
CRAIG          CLOUDY    33  30  88 SE3       30.35S
HAYDEN         CLOUDY    34  28  80 E6        30.34S WCI  29
MEEKER         PTCLDY    27  22  81 E3        30.35S
MOUNT WERNER   NOT AVBL
STEAMBOAT SPGS CLOUDY    33  29  87 CALM      30.35S
WALDEN         CLOUDY    30  27  86 E5        30.34S WCI  25
$$

COZ006>008-011-290900-
...WEST CENTRAL VALLEYS...

CITY           SKY/WX    TMP DP  RH WIND       PRES   REMARKS
GRAND JUNCTION MOCLDY    37  29  72 E6        30.31R
MONTROSE       CLOUDY    31  26  82 E6        30.35R WCI  25
EAGLE          CLOUDY    30  28  93 CALM      30.38S
RIFLE          CLOUDY    36  27  69 E5        30.34R
DELTA          CLOUDY    33  27  77 E5        30.34R WCI  29
NUCLA          CLOUDY    34  27  75 E7        30.35S WCI  28
$$

COZ017>023-064>068-290900-
...SOUTHWEST COLORADO...

CITY           SKY/WX    TMP DP  RH WIND       PRES   REMARKS
DURANGO        CLOUDY    31  26  82 CALM      30.31R
CORTEZ         CLEAR     32  27  81 E6        30.31S WCI  26
PAGOSA SPRINGS CLOUDY    31  29  93 CALM      30.34S
TELLURIDE      CLOUDY    29  22  76 SE5       30.36R WCI  23
WOLF CREEK PAS NOT AVBL
$$

COZ009-010-012-014-032>034-037-058>063-290900-
...CENTRAL COLORADO...

CITY           SKY/WX    TMP DP  RH WIND       PRES   REMARKS
ASPEN          CLOUDY    30  23  75 SW7       30.34F WCI  23
BUENA VISTA    MOCLDY    30  18  61 NW7       30.35S WCI  23
COPPER MTN     FLURRIES  23  16  74 W10       30.38S WCI  12
BERTHOUD PASS  CLOUDY    16  10  79 NW12      30.38F WCI   3
COTTONWOOD PAS CLOUDY    32  18  55 W6        30.36S WCI  26
GUNNISON       CLOUDY    12  10  92 CALM      30.40R
KREMMLING      CLOUDY    30  27  86 CALM      30.37S
LEADVILLE      CLOUDY    21  13  71 CALM      30.35F
MONARCH PASS   CLOUDY    21  18  86 MISG      30.48S
SALIDA         MOCLDY    33  20  59 W6        30.42S WCI  27
SUNLIGHT       PTCLDY    27  25  93 CALM        N/A
WILKERSON PASS CLOUDY    23  14  68 CALM      30.40S
$$

COZ069>075-290900-
...SAN LUIS VALLEY/SANGRE DE CRISTO MOUNTAINS...

CITY           SKY/WX    TMP DP  RH WIND       PRES   REMARKS
ALAMOSA        CLOUDY    23  17  78 W3        30.31F
LA VETA PASS   NOT AVBL
SAGUACHE       CLOUDY    30  23  74 NW10      30.32F WCI  21
$$

COZ035-036-038>040-290900-
...NORTHERN COLORADO FRONT RANGE...

CITY           SKY/WX    TMP DP  RH WIND       PRES   REMARKS
DENVER INTL AP MOCLDY    38  31  76 W9        30.37R
DMNS CITY PARK   N/A     40  30  67 NW3       30.38S
AURORA         CLOUDY    36  31  80 W5        30.38R
FRONT RANGE AP NOT AVBL
ERIE MUNI ARPT CLOUDY    39  31  71 CALM      30.38S
BOULDER MUN AP CLOUDY    39  30  70 CALM      30.38S
CENTENNIAL     CLOUDY    37  30  75 N5        30.38R
BROOMFIELD     CLOUDY    37  30  75 NW5       30.39R
FORT COLLINS   CLOUDY    39  28  65 NW10      30.39R
LONGMONT       CLOUDY    40  31  69 CALM      30.40S
$$

COZ041-046-047-076>085-087-088-290900-
...PIKES PEAK/PALMER DIVIDE AND SOUTHERN FOOTHILLS...

CITY           SKY/WX    TMP DP  RH WIND       PRES   REMARKS
COLO. SPRINGS  MOCLDY    37  28  70 N14       30.36R
A. F. ACADEMY  CLOUDY    36  28  72 N15       30.35R
ELLICOTT       PTCLDY   N/A N/A N/A N20       30.31S
FALCON         PTCLDY    32  26  76 N17       30.35R WCI  21
FORT CARSON    PTCLDY    38  29  69 N15G21    30.33R
LIMON          CLEAR     30  26  85 NW12      30.34R WCI  20
MONUMENT HILL  CLOUDY    32  28  86 NW7       30.37R WCI  26
TRINIDAD       MOCLDY    31  26  82 NW8       30.36R WCI  23
$$

COZ042>045-048>051-090-091-290900-
...NORTHEAST COLORADO...

CITY           SKY/WX    TMP DP  RH WIND       PRES   REMARKS
GREELEY ARPT   CLOUDY    43  27  52 W9        30.36R
AKRON          CLOUDY    36  29  75 NW8       30.31R
BURLINGTON     CLEAR     38  30  73 VRB5G23   30.28R
WRAY           CLEAR     36  31  82 NW12      30.30S
STERLING       CLOUDY    41  32  70 NW10      30.31R
HOLYOKE        CLEAR     37  32  81 NW9       30.31R
FORT MORGAN    CLOUDY    40  26  57 N12       30.34R
$$

COZ086-089-092>099-290900-
...SOUTHEAST COLORADO...

CITY           SKY/WX    TMP DP  RH WIND       PRES   REMARKS
PUEBLO         MOCLDY    36  29  75 S5        30.36R
LA JUNTA       PTCLDY    38  31  76 MISG      30.34R
LAMAR          PTCLDY    38  32  79 W9        30.29R
SPRINGFIELD      N/A     37  31  78 NW10      30.28R
$$



USA.gov is the U.S. government's official web portal to all federal, state and local government web resources and services.